Time,TemperatureF,DewpointF,PressureIn,WindDirection,WindDirectionDegrees,WindSpeedMPH,WindSpeedGustMPH,Humidity,HourlyPrecipIn,Conditions,Clouds,dailyrainin,SoftwareType,DateUTC
2013-03-25 00:22:00,44.2,38.0,30.14,West,277,0.0,1.0,79,0.00,,,0.00,weatherlink.com 1.10,2013-03-25 07:22:00,
2013-03-25 00:37:00,43.8,38.0,30.14,West,277,0.0,0.0,80,0.00,,,0.00,weatherlink.com 1.10,2013-03-25 07:37:00,
2013-03-25 00:52:00,43.1,38.0,30.14,West,277,0.0,1.0,81,0.00,,,0.00,weatherlink.com 1.10,2013-03-25 07:52:00,
2013-03-25 01:07:00,42.4,37.0,30.13,West,277,0.0,1.0,80,0.00,,,0.00,weatherlink.com 1.10,2013-03-25 08:07:00,
2013-03-25 01:23:00,42.2,37.0,30.13,West,277,0.0,0.0,81,0.00,,,0.00,weatherlink.com 1.10,2013-03-25 08:23:00,
2013-03-25 01:38:00,42.0,37.0,30.13,West,277,0.0,1.0,82,0.00,,,0.00,weatherlink.com 1.10,2013-03-25 08:38:00,
2013-03-25 01:53:00,41.9,37.0,30.13,West,277,0.0,1.0,82,0.00,,,0.00,weatherlink.com 1.10,2013-03-25 08:53:00,
2013-03-25 02:08:00,41.7,37.0,30.13,West,277,0.0,1.0,82,0.00,,,0.00,weatherlink.com 1.10,2013-03-25 09:08:00,
2013-03-25 02:23:00,41.6,37.0,30.12,West,277,0.0,1.0,82,0.00,,,0.00,weatherlink.com 1.10,2013-03-25 09:23:00,
2013-03-25 02:38:00,41.7,37.0,30.12,West,277,0.0,0.0,83,0.00,,,0.00,weatherlink.com 1.10,2013-03-25 09:38:00,
2013-03-25 02:53:00,41.8,37.0,30.12,West,277,0.0,0.0,83,0.00,,,0.00,weatherlink.com 1.10,2013-03-25 09:53:00,
2013-03-25 03:08:00,41.7,37.0,30.12,West,277,0.0,0.0,83,0.00,,,0.00,weatherlink.com 1.10,2013-03-25 10:08:00,
2013-03-25 03:23:00,41.7,38.0,30.11,West,277,0.0,1.0,86,0.00,,,0.00,weatherlink.com 1.10,2013-03-25 10:23:00,
2013-03-25 03:38:00,41.7,38.0,30.11,West,277,0.0,0.0,85,0.00,,,0.00,weatherlink.com 1.10,2013-03-25 10:38:00,
2013-03-25 03:53:00,41.6,37.0,30.11,West,277,0.0,0.0,84,0.00,,,0.00,weatherlink.com 1.10,2013-03-25 10:53:00,
2013-03-25 04:08:00,41.4,37.0,30.11,West,277,0.0,0.0,83,0.00,,,0.00,weatherlink.com 1.10,2013-03-25 11:08:00,
2013-03-25 04:23:00,41.3,37.0,30.11,West,277,0.0,1.0,83,0.00,,,0.00,weatherlink.com 1.10,2013-03-25 11:23:00,
2013-03-25 04:38:00,41.3,37.0,30.10,West,277,0.0,0.0,84,0.00,,,0.00,weatherlink.com 1.10,2013-03-25 11:38:00,
2013-03-25 04:53:00,41.2,37.0,30.10,West,277,0.0,0.0,84,0.00,,,0.00,weatherlink.com 1.10,2013-03-25 11:53:00,
2013-03-25 05:08:00,41.2,38.0,30.10,West,277,0.0,0.0,87,0.00,,,0.00,weatherlink.com 1.10,2013-03-25 12:08:00,
2013-03-25 05:23:00,41.3,38.0,30.10,West,277,0.0,0.0,89,0.00,,,0.00,weatherlink.com 1.10,2013-03-25 12:23:00,
2013-03-25 05:38:00,41.3,39.0,30.10,West,277,0.0,0.0,90,0.00,,,0.00,weatherlink.com 1.10,2013-03-25 12:38:00,
2013-03-25 05:53:00,41.1,39.0,30.11,West,277,0.0,0.0,91,0.00,,,0.00,weatherlink.com 1.10,2013-03-25 12:53:00,
2013-03-25 06:08:00,40.8,38.0,30.11,West,277,0.0,1.0,91,0.00,,,0.00,weatherlink.com 1.10,2013-03-25 13:08:00,
2013-03-25 06:23:00,40.4,38.0,30.11,West,277,0.0,0.0,91,0.00,,,0.00,weatherlink.com 1.10,2013-03-25 13:23:00,
2013-03-25 06:38:00,40.0,38.0,30.11,West,277,0.0,0.0,92,0.00,,,0.00,weatherlink.com 1.10,2013-03-25 13:38:00,
2013-03-25 06:53:00,39.7,38.0,30.10,West,277,0.0,0.0,92,0.00,,,0.00,weatherlink.com 1.10,2013-03-25 13:53:00,
2013-03-25 07:08:00,39.3,38.0,30.10,West,277,0.0,0.0,93,0.00,,,0.00,weatherlink.com 1.10,2013-03-25 14:08:00,
2013-03-25 07:23:00,39.1,38.0,30.10,West,277,0.0,0.0,94,0.00,,,0.00,weatherlink.com 1.10,2013-03-25 14:23:00,
2013-03-25 07:38:00,38.9,37.0,30.10,West,277,0.0,0.0,94,0.00,,,0.00,weatherlink.com 1.10,2013-03-25 14:38:00,
2013-03-25 07:53:00,38.8,37.0,30.10,West,277,0.0,1.0,94,0.00,,,0.00,weatherlink.com 1.10,2013-03-25 14:53:00,
2013-03-25 08:08:00,38.9,37.0,30.09,West,277,0.0,2.0,94,0.00,,,0.00,weatherlink.com 1.10,2013-03-25 15:08:00,
2013-03-25 08:23:00,39.2,36.0,30.09,NW,308,2.0,4.0,89,0.00,,,0.00,weatherlink.com 1.10,2013-03-25 15:23:00,
2013-03-25 08:38:00,39.9,36.0,30.09,West,276,1.0,3.0,85,0.00,,,0.00,weatherlink.com 1.10,2013-03-25 15:38:00,
2013-03-25 08:54:00,40.4,36.0,30.09,West,276,1.0,3.0,84,0.00,,,0.00,weatherlink.com 1.10,2013-03-25 15:54:00,
2013-03-25 09:08:00,40.8,35.0,30.09,West,277,1.0,4.0,81,0.00,,,0.00,weatherlink.com 1.10,2013-03-25 16:08:00,
2013-03-25 09:23:00,41.1,36.0,30.09,West,277,0.0,1.0,82,0.00,,,0.00,weatherlink.com 1.10,2013-03-25 16:23:00,
2013-03-25 09:38:00,41.3,37.0,30.09,West,277,0.0,2.0,83,0.00,,,0.00,weatherlink.com 1.10,2013-03-25 16:38:00,
2013-03-25 09:53:00,41.6,37.0,30.09,West,277,2.0,3.0,83,0.00,,,0.00,weatherlink.com 1.10,2013-03-25 16:53:00,
2013-03-25 10:08:00,42.2,37.0,30.09,West,277,0.0,3.0,81,0.00,,,0.00,weatherlink.com 1.10,2013-03-25 17:08:00,
2013-03-25 10:23:00,42.5,38.0,30.09,West,277,0.0,3.0,83,0.00,,,0.00,weatherlink.com 1.10,2013-03-25 17:23:00,
2013-03-25 10:38:00,42.9,37.0,30.09,West,277,0.0,3.0,81,0.00,,,0.00,weatherlink.com 1.10,2013-03-25 17:38:00,
2013-03-25 10:53:00,43.4,37.0,30.09,WNW,283,0.0,4.0,79,0.00,,,0.00,weatherlink.com 1.10,2013-03-25 17:53:00,
2013-03-25 11:08:00,44.0,38.0,30.09,WNW,283,1.0,2.0,79,0.00,,,0.00,weatherlink.com 1.10,2013-03-25 18:08:00,
2013-03-25 11:23:00,44.5,39.0,30.09,SW,221,1.0,3.0,80,0.00,,,0.00,weatherlink.com 1.10,2013-03-25 18:23:00,
2013-03-25 11:38:00,45.0,40.0,30.09,WSW,246,0.0,2.0,81,0.00,,,0.00,weatherlink.com 1.10,2013-03-25 18:38:00,
2013-03-25 11:53:00,45.8,40.0,30.08,WSW,246,0.0,2.0,79,0.00,,,0.00,weatherlink.com 1.10,2013-03-25 18:53:00,
2013-03-25 12:08:00,46.6,40.0,30.08,WSW,246,1.0,2.0,77,0.00,,,0.00,weatherlink.com 1.10,2013-03-25 19:08:00,
2013-03-25 12:23:00,47.0,40.0,30.07,WNW,283,1.0,3.0,77,0.00,,,0.00,weatherlink.com 1.10,2013-03-25 19:23:00,
2013-03-25 12:39:00,47.6,40.0,30.07,WNW,283,2.0,3.0,74,0.00,,,0.00,weatherlink.com 1.10,2013-03-25 19:39:00,
2013-03-25 12:54:00,48.4,40.0,30.06,WNW,294,1.0,4.0,74,0.00,,,0.00,weatherlink.com 1.10,2013-03-25 19:54:00,
2013-03-25 13:09:00,49.1,41.0,30.06,West,279,1.0,4.0,74,0.00,,,0.00,weatherlink.com 1.10,2013-03-25 20:09:00,
2013-03-25 13:24:00,49.6,42.0,30.05,West,279,0.0,3.0,74,0.00,,,0.00,weatherlink.com 1.10,2013-03-25 20:24:00,
2013-03-25 13:39:00,50.6,42.0,30.05,West,279,1.0,2.0,73,0.00,,,0.00,weatherlink.com 1.10,2013-03-25 20:39:00,
2013-03-25 13:54:00,51.2,42.0,30.05,West,279,1.0,3.0,70,0.00,,,0.00,weatherlink.com 1.10,2013-03-25 20:54:00,
2013-03-25 14:09:00,51.4,42.0,30.04,West,279,0.0,3.0,69,0.00,,,0.00,weatherlink.com 1.10,2013-03-25 21:09:00,
2013-03-25 14:24:00,51.8,40.0,30.04,West,279,1.0,2.0,64,0.00,,,0.00,weatherlink.com 1.10,2013-03-25 21:24:00,
2013-03-25 14:39:00,52.6,40.0,30.03,West,279,0.0,2.0,63,0.00,,,0.00,weatherlink.com 1.10,2013-03-25 21:39:00,
2013-03-25 14:54:00,52.9,40.0,30.02,West,279,1.0,3.0,61,0.00,,,0.00,weatherlink.com 1.10,2013-03-25 21:54:00,
2013-03-25 15:09:00,52.6,38.0,30.02,West,279,1.0,3.0,58,0.00,,,0.00,weatherlink.com 1.10,2013-03-25 22:09:00,
2013-03-25 15:24:00,51.9,38.0,30.02,West,279,2.0,3.0,59,0.00,,,0.00,weatherlink.com 1.10,2013-03-25 22:24:00,
2013-03-25 15:39:00,51.2,40.0,30.01,WNW,292,2.0,3.0,65,0.00,,,0.00,weatherlink.com 1.10,2013-03-25 22:39:00,
2013-03-25 15:54:00,51.2,42.0,30.01,WNW,292,1.0,2.0,70,0.00,,,0.00,weatherlink.com 1.10,2013-03-25 22:54:00,
2013-03-25 16:09:00,51.3,41.0,30.00,WNW,292,1.0,3.0,69,0.00,,,0.00,weatherlink.com 1.10,2013-03-25 23:09:00,
2013-03-25 16:24:00,51.2,42.0,30.00,WNW,292,1.0,3.0,72,0.00,,,0.00,weatherlink.com 1.10,2013-03-25 23:24:00,
2013-03-25 16:39:00,52.5,43.0,30.00,WNW,292,1.0,3.0,70,0.00,,,0.00,weatherlink.com 1.10,2013-03-25 23:39:00,
2013-03-25 16:54:00,52.7,42.0,29.99,WNW,292,1.0,3.0,68,0.00,,,0.00,weatherlink.com 1.10,2013-03-25 23:54:00,
2013-03-25 17:09:00,53.1,43.0,29.99,WNW,292,1.0,2.0,68,0.00,,,0.00,weatherlink.com 1.10,2013-03-26 00:09:00,
2013-03-25 17:24:00,52.8,41.0,29.98,WNW,292,0.0,2.0,65,0.00,,,0.00,weatherlink.com 1.10,2013-03-26 00:24:00,
2013-03-25 17:39:00,51.8,41.0,29.98,WNW,292,1.0,3.0,68,0.00,,,0.00,weatherlink.com 1.10,2013-03-26 00:39:00,
2013-03-25 17:54:00,52.0,42.0,29.98,WNW,292,0.0,2.0,68,0.00,,,0.00,weatherlink.com 1.10,2013-03-26 00:54:00,
2013-03-25 18:09:00,52.0,40.0,29.97,WNW,292,1.0,2.0,65,0.00,,,0.00,weatherlink.com 1.10,2013-03-26 01:09:00,
2013-03-25 18:24:00,51.5,41.0,29.97,WNW,292,0.0,1.0,68,0.00,,,0.00,weatherlink.com 1.10,2013-03-26 01:24:00,
2013-03-25 18:39:00,50.5,39.0,29.97,WNW,292,0.0,1.0,66,0.00,,,0.00,weatherlink.com 1.10,2013-03-26 01:39:00,
2013-03-25 18:54:00,49.3,41.0,29.97,WNW,292,0.0,3.0,72,0.00,,,0.00,weatherlink.com 1.10,2013-03-26 01:54:00,
2013-03-25 19:09:00,48.2,40.0,29.97,WNW,292,0.0,2.0,72,0.00,,,0.00,weatherlink.com 1.10,2013-03-26 02:09:00,
2013-03-25 19:24:00,47.6,39.0,29.96,WNW,292,0.0,1.0,73,0.00,,,0.00,weatherlink.com 1.10,2013-03-26 02:24:00,
2013-03-25 19:39:00,46.8,37.0,29.96,WNW,292,0.0,1.0,69,0.00,,,0.00,weatherlink.com 1.10,2013-03-26 02:39:00,
2013-03-25 19:54:00,46.5,36.0,29.96,WNW,292,0.0,2.0,67,0.00,,,0.00,weatherlink.com 1.10,2013-03-26 02:54:00,
2013-03-25 20:09:00,46.3,36.0,29.96,WNW,292,0.0,1.0,67,0.00,,,0.00,weatherlink.com 1.10,2013-03-26 03:09:00,
2013-03-25 20:39:00,45.9,33.0,29.97,WNW,292,0.0,1.0,62,0.00,,,0.00,weatherlink.com 1.10,2013-03-26 03:39:00,
2013-03-25 20:54:00,45.9,32.0,29.97,WNW,292,0.0,1.0,59,0.00,,,0.00,weatherlink.com 1.10,2013-03-26 03:54:00,
2013-03-25 21:09:00,46.1,31.0,29.97,WNW,287,1.0,2.0,57,0.00,,,0.00,weatherlink.com 1.10,2013-03-26 04:09:00,
2013-03-25 21:24:00,46.7,31.0,29.97,WNW,283,0.0,3.0,54,0.00,,,0.00,weatherlink.com 1.10,2013-03-26 04:24:00,
2013-03-25 21:40:00,46.7,30.0,29.97,WNW,283,0.0,3.0,52,0.00,,,0.00,weatherlink.com 1.10,2013-03-26 04:40:00,
2013-03-25 21:54:00,47.2,30.0,29.97,West,276,1.0,5.0,52,0.00,,,0.00,weatherlink.com 1.10,2013-03-26 04:54:00,
2013-03-25 22:09:00,47.4,30.0,29.98,West,276,3.0,3.0,52,0.00,,,0.00,weatherlink.com 1.10,2013-03-26 05:09:00,
2013-03-25 22:25:00,47.4,29.0,29.98,WNW,294,0.0,3.0,50,0.00,,,0.00,weatherlink.com 1.10,2013-03-26 05:25:00,
2013-03-25 22:40:00,47.6,29.0,29.98,WNW,294,1.0,4.0,49,0.00,,,0.00,weatherlink.com 1.10,2013-03-26 05:40:00,
2013-03-25 22:55:00,47.9,29.0,29.98,West,276,1.0,4.0,48,0.00,,,0.00,weatherlink.com 1.10,2013-03-26 05:55:00,
2013-03-25 23:10:00,48.1,31.0,29.98,WNW,298,3.0,3.0,51,0.00,,,0.00,weatherlink.com 1.10,2013-03-26 06:10:00,
2013-03-25 23:25:00,48.0,31.0,29.98,WNW,286,2.0,5.0,52,0.00,,,0.00,weatherlink.com 1.10,2013-03-26 06:25:00,
2013-03-25 23:40:00,47.9,32.0,29.98,NW,314,0.0,5.0,54,0.00,,,0.00,weatherlink.com 1.10,2013-03-26 06:40:00,
2013-03-25 23:55:00,47.6,31.0,29.98,NW,313,2.0,3.0,54,0.00,,,0.00,weatherlink.com 1.10,2013-03-26 06:55:00,